Weather in Azamatovo

Russia / Udmurt Republic     56°11′29″N   52°37′25″E
temp.,
°C
wind,
m/s
gust,
m/s
humid.,
%
clouds,
%
prec.,
mm/h
press.,
hPa
HPBL,
m
13 june, sun
sun1301:00+13ese4109794 1.4 1014314
04:00+12ese399679 1.6 1014193
07:00+16sse499078 0.0 1014326
10:00+21s577264 0.0 1015908
13:00+23s6865100 1.5 10141342
16:00+24ssw686033 2.1 10151245
19:00+21s4876100 1.0 1014274
22:00+18sse498852 1.3 1015155
14 june, mon
mon1401:00+16sse3794100 0.0 1015135
04:00+16sse359093 0.0 101697
07:00+17s268799 0.0 1016198
10:00+22s4669100 0.0 1017594
13:00+24ssw5664100 0.0 10161158
16:00+24sw5667100 0.0 10161118
19:00+23sw357774 0.0 1016239
22:00+19sw228981 0.4 101616
15 june, tue
tue1501:00+18w118870 0.4 101611
04:00+17n0086100 0.4 101611
07:00+21ene2279100 0.0 1016148
10:00+23se2371100 0.0 1015559
13:00+25sse3364100 1.8 1014765
16:00+25ese235997 1.8 1013933
19:00+22sw3680100 2.3 1013111
22:00+18wnw3796100 7.7 1013184
16 june, wed
wed1601:00+18s1182100 0.7 101413
04:00+17s2291100 0.9 101330
07:00+19sse2586100 0.8 1014170
10:00+23sse467669 0.8 1013483
13:00+26sse5656100 0.3 1012926
16:00+27sse4862100 0.3 1011879
19:00+25sse3873100 0.1 1010274
22:00+20se22855 0.1 100919
17 june, thu
thu1701:00+19s2283100 0.0 100818
04:00+18wsw228489 0.0 100711
07:00+20nnw578651 0.1 1007358
10:00+20n81081100 0.2 1009743
13:00+22n896356 0.0 10111394
16:00+21n79590 0.0 10131658
19:00+19n612580 0.0 1015522
22:00+14nnw410650 0.0 1018161